This is the latest recevied weather packets stored in our database for station/object VA2RBQ-7. If no packets are shown the sender has not sent any weather packets the latest 10 day(s).
| Time | Temp. | Humidity | Pressure | Rain* | Wind** | Luminosity | Snow |
|---|---|---|---|---|---|---|---|
| 1788562441 | 9.44° C | 69% | 1014.1 hPa | 3.3 mm | - | - | - |
| 1788562138 | 9.44° C | 69% | 1014.1 hPa | 3.3 mm | - | - | - |
| 1788561836 | 9.44° C | 69% | 1014.1 hPa | 3.05 mm | - | - | - |
| 1788561533 | 9.44° C | 69% | 1014 hPa | 2.79 mm | - | - | - |
| 1788561230 | 9.44° C | 69% | 1013.9 hPa | 2.29 mm | - | - | - |
| 1788560928 | 9.44° C | 69% | 1014 hPa | 2.29 mm | - | - | - |
| 1788560625 | 9.44° C | 69% | 1013.9 hPa | 2.29 mm | - | - | - |
| 1788560323 | 10° C | 69% | 1013.8 hPa | 2.29 mm | - | - | - |
| 1788560020 | 9.44° C | 69% | 1013.7 hPa | 2.29 mm | - | - | - |
| 1788559717 | 9.44° C | 69% | 1013.7 hPa | 2.29 mm | - | - | - |
| 1788559415 | 9.44° C | 69% | 1013.7 hPa | 2.29 mm | - | - | - |
| 1788559112 | 9.44° C | 69% | 1013.6 hPa | 2.29 mm | - | - | - |
| 1788558810 | 9.44° C | 69% | 1013.6 hPa | 2.29 mm | - | - | - |
| 1788558507 | 9.44° C | 69% | 1013.6 hPa | 2.29 mm | - | - | - |
| 1788558204 | 10° C | 69% | 1013.6 hPa | 2.03 mm | - | - | - |
| 1788557902 | 10° C | 70% | 1013.7 hPa | 2.03 mm | - | - | - |
| 1788557599 | 10° C | 70% | 1013.6 hPa | 2.03 mm | - | - | - |
| 1788557297 | 10° C | 70% | 1013.6 hPa | 2.03 mm | - | - | - |
| 1788556994 | 10.56° C | 70% | 1013.8 hPa | 2.03 mm | - | - | - |
| 1788556691 | 10.56° C | 70% | 1013.9 hPa | 1.78 mm | - | - | - |
| 1788556389 | 11.11° C | 70% | 1013.7 hPa | 1.52 mm | - | - | - |
| 1788556086 | 11.11° C | 70% | 1013.9 hPa | 1.52 mm | - | - | - |
| 1788555784 | 11.11° C | 70% | 1013.9 hPa | 1.52 mm | - | - | - |
| 1788555481 | 11.11° C | 70% | 1014 hPa | 1.52 mm | - | - | - |
| 1788555178 | 11.11° C | 70% | 1014 hPa | 1.52 mm | - | - | - |
* Rain since midnight (hover to see other rain measurements)
** Current wind speed in m/s (hover to see current wind gust speed)